PDT,Max TemperatureF,Mean TemperatureF,Min TemperatureF,Max Dew PointF,MeanDew PointF,Min DewpointF,Max Humidity, Mean Humidity, Min Humidity, Max Sea Level PressureIn, Mean Sea Level PressureIn, Min Sea Level PressureIn, Max VisibilityMiles, Mean VisibilityMiles, Min VisibilityMiles, Max Wind SpeedMPH, Mean Wind SpeedMPH, Max Gust SpeedMPH,PrecipitationIn, CloudCover, Events, WindDirDegrees
2013-3-1,59,54,50,50,49,46,100,82,67,30.39,30.35,30.29,10,10,5,13,6,20,0.04,8,Rain,214
2013-3-2,55,46,37,48,43,36,100,88,67,30.30,30.19,30.10,10,10,3,13,3,22,0.13,7,Rain,228
2013-3-3,50,41,32,36,32,25,100,77,37,30.29,30.27,30.22,10,10,10,6,1,,0.00,6,,230
2013-3-4,53,38,24,32,29,21,100,79,34,30.29,30.11,29.91,10,10,10,7,0,,0.00,5,,352
2013-3-5,46,39,32,39,35,30,100,86,62,29.91,29.81,29.72,10,10,5,4,0,,0.00,5,Rain,330
2013-3-6,42,38,35,41,39,36,100,100,93,29.91,29.70,29.57,10,5,0,5,0,,0.40,7,Fog-Rain,211
2013-3-7,53,42,32,41,38,32,100,89,51,30.08,30.02,29.91,10,7,0,6,0,,0.43,6,Fog-Rain,249
2013-3-8,53,42,32,41,36,32,100,89,58,30.24,30.12,30.07,10,6,0,8,0,,0.00,6,Fog,345
2013-3-9,57,42,26,39,33,27,100,79,36,30.50,30.40,30.24,10,8,0,0,0,,0.00,3,Fog-Rain,-1
2013-3-10,44,38,32,45,39,32,100,99,93,30.50,30.46,30.43,10,7,2,0,0,,0.03,6,Rain,-1
2013-3-11,50,46,41,48,44,41,100,96,82,30.44,30.34,30.18,10,6,2,0,0,,0.05,7,Rain,-1
2013-3-12,53,50,48,50,49,46,100,95,82,30.18,30.14,30.11,10,8,2,9,3,17,0.21,7,Rain,199
2013-3-13,51,50,48,52,50,48,100,100,94,30.23,30.17,30.10,10,6,1,5,0,,0.33,7,Rain,203
2013-3-14,53,50,46,52,49,46,100,96,87,30.15,30.09,30.02,10,7,0,8,0,,0.04,7,Fog-Rain,265
2013-3-15,59,54,48,52,49,46,100,91,63,30.22,30.19,30.16,10,10,3,8,2,,0.07,7,Rain,242
2013-3-16,50,42,35,46,42,36,100,93,76,30.16,30.03,29.94,10,9,3,15,3,29,0.13,7,Rain,233
2013-3-17,46,40,35,39,35,32,93,84,57,30.22,30.16,30.01,10,10,2,12,7,22,0.06,6,Rain,232
2013-3-18,51,42,32,39,33,27,100,75,40,30.23,30.20,30.17,10,10,3,14,6,23,0.00,6,Rain,225
2013-3-19,50,39,28,45,36,28,100,88,50,30.22,29.95,29.60,10,9,3,10,0,21,0.26,5,Rain,213
2013-3-20,51,43,35,48,43,36,100,91,76,30.07,29.68,29.41,10,8,2,20,9,31,0.45,7,Rain,220
2013-3-21,44,40,35,37,35,32,100,87,66,30.22,30.16,30.06,10,10,2,13,7,21,0.02,7,Rain,222
2013-3-22,48,39,30,36,30,19,100,77,34,30.37,30.29,30.23,10,10,7,7,1,,0.00,7,Rain,235
2013-3-23,50,40,30,32,29,23,100,76,37,30.39,30.35,30.30,10,10,10,6,0,,0.00,6,,346
2013-3-24,53,40,26,34,30,27,100,75,38,30.29,30.21,30.12,10,10,10,5,0,,0.00,6,,350
2013-3-25,59,44,28,41,33,28,100,68,33,30.13,30.02,29.94,10,10,10,7,1,,0.00,6,,347
2013-3-26,59,50,41,45,39,36,93,67,42,30.02,29.99,29.96,10,10,10,5,0,,0.00,6,,10
2013-3-27,57,48,39,48,45,39,100,89,67,29.99,29.96,29.94,10,10,3,6,0,,0.00,6,Rain,38
2013-3-28,59,49,39,52,46,39,100,90,67,30.16,30.07,29.99,10,8,0,7,0,,0.12,6,Fog-Rain,312
2013-3-29,64,52,41,48,44,41,100,80,45,30.25,30.21,30.16,10,10,9,7,1,,0.00,5,,354
2013-3-30,66,50,33,45,42,34,100,78,45,30.26,30.18,30.08,10,9,1,8,1,,0.00,5,,352
2013-3-31,71,53,35,46,42,36,100,75,35,30.07,30.00,29.93,10,9,1,5,0,,0.00,6,,347